Location: Unspecified
(58.7730°N, 5.8460°E)
Time: 19:28:38
(UTC+02:00)

Resurs 1-4 Rocket - Visible Passes

Search period start: 20 April 2014 00:00
Search period end: 30 April 2014 00:00
Orbit: 800 x 815 km, 98.3° (Epoch: 19 April)

Date Brightness Start Highest point End Pass type
(mag) Time Alt. Az. Time Alt. Az. Time Alt. Az.
20 Apr 4.9 04:24:23 10° NE 04:26:50 13° E 04:29:16 10° ESE visible
22 Apr 4.2 05:14:10 10° NNE 05:18:42 28° E 05:23:13 10° SSE visible
23 Apr 4.7 04:50:09 10° NE 04:53:59 20° E 04:57:48 10° SE visible
24 Apr 4.9 04:26:31 10° NE 04:29:10 14° E 04:31:49 10° ESE visible
27 Apr 4.6 04:52:22 10° NE 04:56:18 21° E 05:00:14 10° SE visible
28 Apr 4.8 04:28:40 10° NE 04:31:31 15° E 04:34:21 10° ESE visible
